Lubbock, TX

11:20 AM CST on February 28, 2017 (GMT -0600)
Lubbock International

Weather History for KLBB - April, 2014

Change the Weather History Date:

Wednesday, April 9, 2014

  Actual Average Record
Temperature  
Mean Temperature 67 °F 58 °F  
Max Temperature 89 °F 74 °F 94 °F (1939)
Min Temperature 44 °F 44 °F 23 °F (1938)
Degree Days  
Heating Degree Days 0 8  
Month to date heating degree days 71 77  
Since 1 July heating degree days 3363 3231  
Cooling Degree Days 2 1  
Month to date cooling degree days 6 9  
Year to date cooling degree days 9 16  
Growing Degree Days 16 (Base 50)    
Moisture  
Dew Point 19 °F    
Average Humidity 26    
Maximum Humidity 46    
Minimum Humidity 5    
Precipitation  
Precipitation 0.00 in 0.04 in 1.07 in (2008)
Month to date precipitation 0.14 0.37  
Year to date precipitation 0.47 2.87  
Snow  
Snow 0.00 in 0.00 in 6.00 in (1942)
Month to date snowfall 0.0 0.1  
Since 1 July snowfall 4.2 8.1  
Snow Depth 0.00 in    
Sea Level Pressure  
Sea Level Pressure 29.97 in    
Wind  
Wind Speed 16 mph (SW)    
Max Wind Speed 32 mph    
Max Gust Speed 41 mph    
Visibility 10 miles    
Events      
T = Trace of Precipitation, MM = Missing Value Source: NWS Daily Summary

Daily Weather History Graph

Daily Weather History Graph

Search for Another Location

Airport or City:

Trip Planner

Search our weather history database for the weather conditions in past years. The results will help you decide how hot, cold, wet, or windy it might be!

Date:

Astronomy

Apr. 09, 2014 Rise Set
Actual Time 7:24 AM CDT 8:13 PM CDT
Civil Twilight 6:58 AM CDT 8:39 PM CDT
Nautical Twilight 6:29 AM CDT 9:09 PM CDT
Astronomical Twilight 5:58 AM CDT 9:40 PM CDT
Moon 3:17 PM CDT (4/9) 3:59 AM CDT (4/9)
Length of Visible Light 13h 40m
Length of Day
12h 49m
Waxing Gibbous, 72% of the Moon is Illuminated
Apr 9
Waxing Gibbous
Apr 15
Full
Apr 22
Last Quarter
Apr 29
New
May 6
First Quarter

Hourly Weather History & Observations

Time (CDT) Temp. Windchill Dew Point Humidity Pressure Visibility Wind Dir Wind Speed Gust Speed Precip Events Conditions
12:53 AM 53.1 °F - 28.0 °F 38% 30.11 in 10.0 mi SW 5.8 mph - N/A   Clear
1:53 AM 54.0 °F - 27.0 °F 35% 30.10 in 10.0 mi SW 4.6 mph - N/A   Clear
2:53 AM 48.9 °F - 28.9 °F 46% 30.09 in 10.0 mi SW 4.6 mph - N/A   Clear
3:53 AM 48.9 °F - 28.0 °F 44% 30.07 in 10.0 mi WSW 8.1 mph - N/A   Clear
4:53 AM 46.0 °F 42.5 °F 26.1 °F 46% 30.07 in 10.0 mi West 6.9 mph - N/A   Clear
5:53 AM 45.0 °F 41.2 °F 24.1 °F 44% 30.07 in 10.0 mi West 6.9 mph - N/A   Clear
6:53 AM 46.9 °F - 23.0 °F 39% 30.06 in 10.0 mi WSW 8.1 mph - N/A   Clear
7:53 AM 46.9 °F - 24.1 °F 41% 30.08 in 10.0 mi WSW 8.1 mph - N/A   Partly Cloudy
8:53 AM 55.9 °F - 26.1 °F 32% 30.08 in 10.0 mi WSW 8.1 mph - N/A   Partly Cloudy
9:53 AM 66.9 °F - 21.9 °F 18% 30.07 in 10.0 mi SSW 20.7 mph - N/A   Partly Cloudy
10:53 AM 72.0 °F - 21.9 °F 15% 30.05 in 10.0 mi SSW 23.0 mph - N/A   Partly Cloudy
11:53 AM 77.0 °F - 21.9 °F 13% 30.02 in 10.0 mi SSW 19.6 mph - N/A   Partly Cloudy
12:53 PM 82.0 °F - 18.0 °F 9% 29.99 in 10.0 mi SSW 16.1 mph 26.5 mph N/A   Partly Cloudy
1:53 PM 84.9 °F - 18.0 °F 8% 29.94 in 10.0 mi SSW 16.1 mph 26.5 mph N/A   Partly Cloudy
2:53 PM 87.1 °F - 16.0 °F 7% 29.91 in 10.0 mi South 18.4 mph 28.8 mph N/A   Partly Cloudy
3:53 PM 89.1 °F - 14.0 °F 6% 29.86 in 10.0 mi SSW 25.3 mph 32.2 mph N/A   Partly Cloudy
4:53 PM 88.0 °F - 12.0 °F 6% 29.83 in 10.0 mi SW 28.8 mph 36.8 mph N/A   Partly Cloudy
5:53 PM 89.1 °F - 10.9 °F 5% 29.81 in 10.0 mi WSW 27.6 mph 32.2 mph N/A   Clear
6:53 PM 87.1 °F - 7.0 °F 5% 29.81 in 10.0 mi West 17.3 mph 31.1 mph N/A   Partly Cloudy
7:53 PM 82.9 °F - 8.1 °F 6% 29.81 in 10.0 mi West 13.8 mph - N/A   Scattered Clouds
8:53 PM 75.0 °F - 12.0 °F 9% 29.82 in 10.0 mi SSW 10.4 mph - N/A   Scattered Clouds
9:53 PM 75.0 °F - 12.9 °F 9% 29.81 in 10.0 mi SSW 13.8 mph - N/A   Partly Cloudy
10:53 PM 73.0 °F - 12.9 °F 10% 29.81 in 10.0 mi South 19.6 mph - N/A   Partly Cloudy
11:53 PM 72.0 °F - 16.0 °F 12% 29.80 in 10.0 mi SSW 25.3 mph 39.1 mph N/A   Scattered Clouds